EW1423 Weather Reports


time (UTC)temp
C
wind
direction
speed
KPH
gust
KPH
rain 1hr
cm
rain 24hr
cm
rain mn
cm
humidity
%
barometer
mb
20260510170304 22 95 0.0 3.2 0.00 0.00 0.00 56 1005.4
20260510165306 22 95 0.0 1.6 0.00 0.00 0.00 55 1005.4
20260510164804 22 95 0.0 3.2 0.00 0.00 0.00 54 1005.4
20260510164304 22 95 0.0 1.6 0.00 0.00 0.00 56 1005.4
20260510163804 22 41 1.6 4.8 0.00 0.00 0.00 53 1005.4
20260510162804 22 86 1.6 4.8 0.00 0.00 0.00 52 1005.6
20260510162306 23 84 1.6 4.8 0.00 0.00 0.00 52 1005.6
20260510161804 23 100 1.6 4.8 0.00 0.00 0.00 52 1005.6
20260510161304 23 59 1.6 4.8 0.00 0.00 0.00 52 1005.6
20260510155803 23 38 1.6 4.8 0.00 0.00 0.00 51 1006.4
20260510155305 23 74 3.2 8.0 0.00 0.00 0.00 51 1006.4
20260510154804 23 93 3.2 14.5 0.00 0.00 0.00 50 1006.4
20260510153803 24 104 3.2 8.0 0.00 0.00 0.00 50 1006.4
20260510152804 25 130 3.2 9.7 0.00 0.00 0.00 48 1006.4
20260510152307 25 100 3.2 8.0 0.00 0.00 0.00 48 1006.4
20260510151804 25 116 4.8 11.3 0.00 0.00 0.00 48 1006.4
20260510151303 25 98 4.8 11.3 0.00 0.00 0.00 49 1006.4
20260510150803 25 74 1.6 11.3 0.00 0.00 0.00 49 1006.6
20260510145804 25 71 4.8 9.7 0.00 0.00 0.00 48 1006.6
20260510144819 24 92 1.6 4.8 0.00 0.00 0.00 52 1006.8
20260510144303 24 93 1.6 11.3 0.00 0.00 0.00 51 1006.9
20260510143803 24 145 3.2 11.3 0.00 0.00 0.00 50 1006.9
20260510143304 24 130 1.6 9.7 0.00 0.00 0.00 50 1006.9
20260510142804 24 76 3.2 8.0 0.00 0.00 0.00 50 1006.9
20260510142306 24 136 3.2 8.0 0.00 0.00 0.00 50 1007.2
20260510141803 24 129 1.6 8.0 0.00 0.00 0.00 50 1007.2
20260510141304 24 131 3.2 8.0 0.00 0.00 0.00 50 1007.2
20260510140804 24 59 4.8 9.7 0.00 0.00 0.00 51 1007.2
20260510140303 24 71 3.2 8.0 0.00 0.00 0.00 49 1007.2
20260510135804 24 97 3.2 11.3 0.00 0.00 0.00 48 1007.3
20260510135306 24 67 1.6 4.8 0.00 0.00 0.00 47 1007.3
20260510134804 24 115 3.2 8.0 0.00 0.00 0.00 49 1007.3
20260510133804 24 92 3.2 8.0 0.00 0.00 0.00 48 1007.3
20260510132804 24 113 1.6 9.7 0.00 0.00 0.00 48 1007.9
20260510132306 24 110 3.2 9.7 0.00 0.00 0.00 48 1007.9
20260510131804 25 134 3.2 8.0 0.00 0.00 0.00 47 1007.9
20260510130804 25 129 3.2 9.7 0.00 0.00 0.00 44 1007.9
20260510130304 25 114 3.2 8.0 0.00 0.00 0.00 44 1007.9
20260510125804 25 85 1.6 16.1 0.00 0.00 0.00 46 1007.9
20260510125306 25 117 3.2 8.0 0.00 0.00 0.00 44 1007.9
20260510123803 25 124 3.2 11.3 0.00 0.00 0.00 40 1007.9
20260510123304 26 157 3.2 16.1 0.00 0.00 0.00 39 1008.1
20260510122804 26 158 4.8 14.5 0.00 0.00 0.00 39 1008.1
20260510122306 26 121 4.8 12.9 0.00 0.00 0.00 39 1008.1
20260510121803 26 119 4.8 19.3 0.00 0.00 0.00 40 1008.1
20260510121303 26 140 4.8 12.9 0.00 0.00 0.00 39 1008.3
20260510120304 26 125 3.2 11.3 0.00 0.00 0.00 41 1008.3
20260510115803 26 103 4.8 14.5 0.00 0.00 0.00 40 1008.3
20260510115306 26 88 4.8 14.5 0.00 0.00 0.00 37 1008.4
20260510114803 26 130 8.0 16.1 0.00 0.00 0.00 38 1008.4
20260510114304 26 49 4.8 16.1 0.00 0.00 0.00 39 1008.4
20260510113804 26 70 1.6 12.9 0.00 0.00 0.00 44 1008.7
20260510112804 26 44 3.2 8.0 0.00 0.00 0.00 40 1008.7
20260510112306 26 69 3.2 9.7 0.00 0.00 0.00 42 1008.7
20260510111803 26 130 3.2 9.7 0.00 0.00 0.00 41 1009.7
20260510111303 25 115 4.8 16.1 0.00 0.00 0.00 41 1009.7
20260510110804 26 49 3.2 14.5 0.00 0.00 0.00 42 1009.7
20260510110303 26 124 6.4 16.1 0.00 0.00 0.00 39 1009.7
20260510105818 26 125 1.6 8.0 0.00 0.00 0.00 43 1009.7
20260510105306 25 101 3.2 16.1 0.00 0.00 0.00 44 1009.7
20260510104303 25 70 3.2 11.3 0.00 0.00 0.00 45 1009.7
20260510103804 25 109 3.2 16.1 0.00 0.00 0.00 44 1009.7
20260510102804 25 100 4.8 14.5 0.00 0.00 0.00 45 1009.7
20260510102306 25 132 4.8 19.3 0.00 0.00 0.00 44 1009.7
20260510101803 25 152 4.8 14.5 0.00 0.00 0.00 45 1009.7
20260510101303 25 122 4.8 9.7 0.00 0.00 0.00 46 1009.7
20260510100804 25 123 3.2 12.9 0.00 0.00 0.00 46 1009.7
20260510095803 23 109 3.2 12.9 0.00 0.00 0.00 49 1010.3
20260510095305 23 117 3.2 8.0 0.00 0.00 0.00 48 1010.3
20260510094804 23 129 4.8 14.5 0.00 0.00 0.00 52 1010.3
20260510094303 23 126 4.8 20.9 0.00 0.00 0.00 50 1010.3
20260510093303 22 132 3.2 8.0 0.00 0.00 0.00 54 1010.3
20260510092804 22 92 3.2 11.3 0.00 0.00 0.00 53 1010.3
20260510092306 22 116 4.8 9.7 0.00 0.00 0.00 54 1010.3
20260510091804 22 122 3.2 9.7 0.00 0.00 0.00 53 1010.3
20260510091303 22 58 3.2 8.0 0.00 0.00 0.00 53 1010.5
20260510090304 22 41 3.2 11.3 0.00 0.00 0.00 54 1010.7
20260510085804 22 129 1.6 4.8 0.00 0.00 0.00 53 1010.7
20260510085306 22 59 3.2 12.9 0.00 0.00 0.00 56 1010.7
20260510084803 22 339 1.6 4.8 0.00 0.00 0.00 56 1010.7
20260510084303 22 346 1.6 3.2 0.00 0.00 0.00 58 1010.7
20260510083804 21 346 1.6 3.2 0.00 0.00 0.00 59 1010.7
20260510083303 21 347 1.6 3.2 0.00 0.00 0.00 60 1010.8
20260510082804 21 347 1.6 4.8 0.00 0.00 0.00 60 1010.8
20260510082306 21 319 1.6 3.2 0.00 0.00 0.00 62 1010.9
20260510081804 21 319 1.6 4.8 0.00 0.00 0.00 61 1010.9
20260510081303 21 294 0.0 3.2 0.00 0.00 0.00 63 1010.9
20260510080803 21 294 0.0 1.6 0.00 0.00 0.00 61 1010.9
20260510080304 20 294 1.6 3.2 0.00 0.00 0.00 63 1010.9
20260510075306 20 294 0.0 3.2 0.00 0.00 0.00 66 1011.1
20260510074804 20 306 1.6 4.8 0.00 0.00 0.00 65 1011.1
20260510074303 19 348 1.6 3.2 0.00 0.00 0.00 63 1011.1
20260510073804 19 349 1.6 3.2 0.00 0.00 0.00 67 1011.2
20260510072804 18 352 1.6 4.8 0.00 0.00 0.00 66 1011.2
20260510072306 18 355 0.0 3.2 0.00 0.00 0.00 66 1011.2
20260510071803 18 355 1.6 3.2 0.00 0.00 0.00 68 1011.3
20260510071304 18 355 0.0 1.6 0.00 0.00 0.00 69 1011.3
20260510070804 18 355 0.0 4.8 0.00 0.00 0.00 68 1011.3
20260510070303 18 355 0.0 1.6 0.00 0.00 0.00 69 1011.3
20260510065803 17 355 0.0 1.6 0.00 0.00 0.00 70 1011.4
20260510065306 17 355 0.0 3.2 0.00 0.00 0.00 71 1011.4
20260510064803 17 0 1.6 1.6 0.00 0.00 0.00 73 1011.4
20260510064304 17 0 0.0 1.6 0.00 0.00 0.00 74 1011.4
20260510063804 16 0 0.0 1.6 0.00 0.00 0.00 76 1011.5
20260510063303 16 0 1.6 3.2 0.00 0.00 0.00 75 1011.5
20260510062803 16 0 0.0 1.6 0.00 0.00 0.00 79 1011.5
20260510062307 15 0 0.0 1.6 0.00 0.00 0.00 81 1011.5
20260510060804 13 0 1.6 4.8 0.00 0.00 0.00 84 1011.8
20260510060304 13 355 1.6 3.2 0.00 0.00 0.00 84 1011.8
20260510055306 12 254 0.0 3.2 0.00 0.00 0.00 89 1011.8
20260510054803 12 254 0.0 1.6 0.00 0.00 0.00 92 1011.8
20260510054304 11 254 0.0 1.6 0.00 0.00 0.00 92 1011.8
20260510053303 10 254 0.0 1.6 0.00 0.00 0.00 95 1011.8
20260510052804 10 254 0.0 1.6 0.00 0.00 0.00 96 1011.8
20260510051804 10 254 0.0 1.6 0.00 0.00 0.00 99 1012.0
20260510051303 9 254 0.0 0.0 0.00 0.00 0.00 100 1012.0
20260510050804 8 254 0.0 0.0 0.00 0.00 0.00 100 1012.0
20260510050315 8 254 0.0 0.0 0.00 0.00 0.00 100 1012.0
20260510045803 8 254 0.0 0.0 0.00 0.00 0.00 100 1012.0
20260510045306 8 254 0.0 0.0 0.00 0.00 0.00 100 1012.0
20260510044804 8 254 0.0 0.0 0.00 0.00 0.00 100 1012.0
20260510044303 7 254 0.0 0.0 0.00 0.00 0.00 100 1012.0
20260510043804 7 254 0.0 0.0 0.00 0.00 0.00 100 1012.0
20260510043304 7 254 0.0 0.0 0.00 0.00 0.00 100 1012.0
20260510042804 7 254 0.0 0.0 0.00 0.00 0.00 100 1012.0
20260510042306 7 254 0.0 0.0 0.00 0.00 0.00 100 1012.1
20260510041804 7 254 0.0 0.0 0.00 0.00 0.00 100 1012.1
20260510041303 7 254 0.0 0.0 0.00 0.00 0.00 100 1012.3
20260510040803 7 254 0.0 0.0 0.00 0.00 0.00 100 1012.3
20260510040304 7 254 0.0 0.0 0.00 0.00 0.00 100 1012.3
20260510035803 7 254 0.0 0.0 0.00 0.00 0.00 100 1012.3
20260510033803 7 254 0.0 0.0 0.00 0.00 0.00 99 1012.2
20260510033303 7 254 0.0 0.0 0.00 0.00 0.00 99 1012.2
20260510032803 7 254 0.0 0.0 0.00 0.00 0.00 100 1012.2
20260510032306 7 254 0.0 0.0 0.00 0.00 0.00 100 1012.2
20260510031803 7 254 0.0 0.0 0.00 0.00 0.00 99 1012.2
20260510031304 7 254 0.0 0.0 0.00 0.00 0.00 99 1012.3
20260510030803 7 254 0.0 0.0 0.00 0.00 0.00 99 1012.3
20260510025803 8 254 0.0 0.0 0.00 0.00 0.00 99 1012.5
20260510025306 8 254 0.0 0.0 0.00 0.00 0.00 99 1012.5
20260510024803 8 254 0.0 0.0 0.00 0.00 0.00 99 1012.5
20260510024303 8 254 0.0 0.0 0.00 0.00 0.00 99 1012.5
20260510023803 8 254 0.0 0.0 0.00 0.00 0.00 99 1012.5
20260510023303 8 254 0.0 0.0 0.00 0.00 0.00 99 1012.6
20260510022804 8 254 0.0 0.0 0.00 0.00 0.00 99 1012.6
20260510022306 8 254 0.0 0.0 0.00 0.00 0.00 99 1012.6
20260510021803 8 254 0.0 0.0 0.00 0.00 0.00 98 1012.6
20260510020303 8 254 0.0 1.6 0.00 0.00 0.00 98 1012.6
20260510015804 8 254 0.0 0.0 0.00 0.00 0.00 98 1012.6
20260510015306 8 254 0.0 0.0 0.00 0.00 0.00 98 1012.8
20260510014804 8 254 0.0 0.0 0.00 0.00 0.00 97 1012.8
20260510014304 8 254 0.0 0.0 0.00 0.00 0.00 98 1013.4
20260510013804 8 254 0.0 0.0 0.00 0.00 0.00 97 1013.4
20260510013304 9 254 0.0 1.6 0.00 0.00 0.00 97 1013.4
20260510012804 9 254 0.0 0.0 0.00 0.00 0.00 97 1013.4
20260510012306 9 254 0.0 1.6 0.00 0.00 0.00 97 1013.4
20260510011804 9 254 0.0 0.0 0.00 0.00 0.00 98 1013.4
20260510011304 9 254 0.0 0.0 0.00 0.00 0.00 97 1013.4
20260510010804 9 254 0.0 0.0 0.00 0.00 0.00 98 1013.4
20260510010303 9 254 0.0 0.0 0.00 0.00 0.00 97 1013.4
20260510005804 9 254 0.0 0.0 0.00 0.00 0.00 97 1013.4
20260510005306 9 254 0.0 0.0 0.00 0.00 0.00 97 1013.4
20260510004804 9 254 0.0 0.0 0.00 0.00 0.00 97 1013.4
20260510004304 9 254 0.0 1.6 0.00 0.00 0.00 97 1013.4
20260510003803 9 254 0.0 0.0 0.00 0.00 0.00 96 1013.4
20260510003303 9 254 0.0 0.0 0.00 0.00 0.00 97 1013.4
20260510002803 9 254 0.0 0.0 0.00 0.00 0.00 97 1013.4
20260510002306 9 254 0.0 0.0 0.00 0.00 0.00 96 1013.4
20260510001804 9 254 0.0 0.0 0.00 0.00 0.00 96 1013.4
20260510000803 10 254 0.0 0.0 0.00 0.00 0.00 96 1013.6
20260510000304 10 254 0.0 0.0 0.00 0.00 0.00 96 1013.6
20260509235803 10 254 0.0 0.0 0.00 0.00 0.00 95 1013.6
20260509235306 10 254 0.0 0.0 0.00 0.00 0.00 95 1013.6
20260509234803 10 254 0.0 0.0 0.00 0.00 0.00 94 1013.8
20260509234303 10 254 0.0 0.0 0.00 0.00 0.00 94 1013.8
20260509233803 10 254 0.0 0.0 0.00 0.00 0.00 94 1013.8
20260509233303 10 254 0.0 0.0 0.00 0.00 0.00 94 1013.8
20260509232804 10 254 0.0 0.0 0.00 0.00 0.00 94 1013.9
20260509232306 10 254 0.0 0.0 0.00 0.00 0.00 94 1013.9
20260509231819 10 254 0.0 0.0 0.00 0.00 0.00 93 1013.9
20260509231304 10 254 0.0 0.0 0.00 0.00 0.00 93 1013.9
20260509230803 11 254 0.0 0.0 0.00 0.00 0.00 93 1013.9
20260509230303 11 254 0.0 0.0 0.00 0.00 0.00 93 1013.9
20260509225804 11 254 0.0 0.0 0.00 0.00 0.00 93 1013.9
20260509225306 11 254 0.0 0.0 0.00 0.00 0.00 93 1013.9
20260509224304 11 254 0.0 0.0 0.00 0.00 0.00 92 1013.9
20260509223804 11 254 0.0 0.0 0.00 0.00 0.00 92 1013.9
20260509223303 11 254 0.0 0.0 0.00 0.00 0.00 91 1013.9
20260509222804 11 254 0.0 0.0 0.00 0.00 0.00 91 1013.9
20260509222306 11 254 0.0 0.0 0.00 0.00 0.00 91 1013.9
20260509221803 11 254 0.0 0.0 0.00 0.00 0.00 91 1013.9
20260509221304 11 254 0.0 0.0 0.00 0.00 0.00 91 1013.9
20260509220810 11 254 0.0 0.0 0.00 0.00 0.00 90 1013.9
20260509220304 12 254 0.0 0.0 0.00 0.00 0.00 90 1013.8
20260509215803 12 254 0.0 0.0 0.00 0.00 0.00 90 1013.8
20260509215306 12 254 0.0 0.0 0.00 0.00 0.00 90 1013.8
20260509214804 12 254 0.0 0.0 0.00 0.00 0.00 89 1013.8
20260509214303 12 254 0.0 0.0 0.00 0.00 0.00 89 1013.8
20260509213804 12 254 0.0 0.0 0.00 0.00 0.00 89 1013.8
20260509212803 12 254 0.0 0.0 0.00 0.00 0.00 88 1013.8
20260509212306 12 254 0.0 0.0 0.00 0.00 0.00 86 1013.8
20260509211304 13 254 0.0 0.0 0.00 0.00 0.00 85 1013.8
20260509210804 13 254 0.0 0.0 0.00 0.00 0.00 84 1013.9
20260509210318 13 254 0.0 0.0 0.00 0.00 0.00 83 1013.9
20260509205804 13 254 0.0 0.0 0.00 0.00 0.00 82 1013.9
20260509204804 14 254 0.0 0.0 0.00 0.00 0.00 80 1014.0
20260509204304 15 254 0.0 1.6 0.00 0.00 0.00 79 1014.0
20260509203804 15 254 0.0 0.0 0.00 0.00 0.00 78 1014.0
20260509203319 15 254 0.0 1.6 0.00 0.00 0.00 77 1014.0
20260509202803 15 254 0.0 1.6 0.00 0.00 0.00 75 1013.9
20260509202306 16 254 0.0 1.6 0.00 0.00 0.00 73 1013.9
20260509201804 16 254 0.0 1.6 0.00 0.00 0.00 72 1014.0
20260509201304 16 254 0.0 0.0 0.00 0.00 0.00 71 1014.0
20260509200804 17 254 0.0 1.6 0.00 0.00 0.00 70 1014.0
20260509200304 17 254 0.0 1.6 0.00 0.00 0.00 68 1014.0
20260509195804 17 254 0.0 8.0 0.00 0.00 0.00 69 1013.8
20260509195306 17 4 1.6 3.2 0.00 0.00 0.00 70 1013.8
20260509194303 17 9 1.6 4.8 0.00 0.00 0.00 68 1013.8
20260509193803 17 23 1.6 4.8 0.00 0.00 0.00 69 1013.8
20260509193303 17 15 1.6 3.2 0.00 0.00 0.00 67 1013.6
20260509192804 17 15 0.0 1.6 0.00 0.00 0.00 67 1013.6
20260509192306 17 15 0.0 1.6 0.00 0.00 0.00 66 1013.6
20260509191804 18 15 1.6 8.0 0.00 0.00 0.00 66 1013.6
20260509191304 18 5 1.6 3.2 0.00 0.00 0.00 65 1013.6
20260509190804 18 37 1.6 8.0 0.00 0.00 0.00 65 1013.6
20260509190303 18 355 1.6 4.8 0.00 0.00 0.00 66 1013.6
20260509185803 18 355 0.0 3.2 0.00 0.00 0.00 65 1013.6
20260509185306 18 355 1.6 3.2 0.00 0.00 0.00 64 1013.6
20260509184803 18 344 0.0 3.2 0.00 0.00 0.00 63 1013.6
20260509183804 19 29 0.0 3.2 0.00 0.00 0.00 61 1013.6
20260509183304 20 319 0.0 1.6 0.00 0.00 0.00 59 1013.6
20260509182306 20 338 1.6 3.2 0.00 0.00 0.00 56 1013.6
20260509181804 20 334 0.0 3.2 0.00 0.00 0.00 56 1013.6
20260509181304 20 334 1.6 3.2 0.00 0.00 0.00 56 1013.6
20260509180803 21 50 0.0 4.8 0.00 0.00 0.00 55 1013.6
20260509180303 21 300 1.6 3.2 0.00 0.00 0.00 55 1013.6
20260509175803 21 302 1.6 4.8 0.00 0.00 0.00 54 1013.6
20260509175306 21 0 1.6 4.8 0.00 0.00 0.00 53 1013.4
20260509174804 21 344 1.6 12.9 0.00 0.00 0.00 53 1013.4
20260509174303 22 289 1.6 8.0 0.00 0.00 0.00 52 1013.4
20260509173803 22 321 3.2 8.0 0.00 0.00 0.00 51 1013.4
20260509173303 22 26 1.6 9.7 0.00 0.00 0.00 50 1013.4
20260509172803 22 301 3.2 8.0 0.00 0.00 0.00 50 1013.4
20260509172306 23 318 1.6 4.8 0.00 0.00 0.00 50 1013.3
20260509171804 23 18 1.6 9.7 0.00 0.00 0.00 48 1013.4
20260509171303 23 297 0.0 1.6 0.00 0.00 0.00 45 1013.4